AN7_time,AN7_WT_05_Temp,AN7_WT_05_VWC,AN7_Pot_05_Soil_Water_Pot,AN7_WT_10_Temp,AN7_WT_10_VWC,AN7_Pot_10_Soil_Water_Pot
2010-03-03,0.64285705770765,0.328097854341779,-19.3342948326698,1.42142851012094,0.237705711807523,-21.6916304368239
2010-03-04,2.70000004768372,0.379908543700973,-18.0292946894964,3.52291664481163,0.288076046233376,-17.1776219010353
2010-03-05,2.50208338101705,0.380771464357773,-17.193891008695,3.5,0.295728754252195,-15.4844382007917
2010-03-06,2.56666671733061,0.381611665089925,-16.7769208749135,3.44791668653488,0.302314170946678,-15.3983440001806
2010-03-07,2.85625005761782,0.382338325182597,-16.4676884412766,3.33124999701977,0.308717912063003,-15.3344968159993
2010-03-08,2.76249998807907,0.382497282077869,-16.2940149704615,3.48958334326744,0.317892079552015,-15.2231816053391
2010-03-09,2.70000004768372,0.382542698954542,-16.1470685799917,3.4645833671093,0.327270619571209,-15.0844162305196
2010-03-10,2.73125001788139,0.382837912688653,-16.0123853286107,3.3354166696469,0.334491873780886,-14.9812950491905
2010-03-11,2.70000004768372,0.38306500017643,-15.8940204779307,3.34791668752829,0.341009164229035,-14.9090117613475
2010-03-12,2.74375003079573,0.383292087664207,-15.8182568947474,3.29999995231628,0.346163954585791,-14.7992600401243
2010-03-13,2.98125001788139,0.383587301398317,-15.6673427025477,3.35208334525426,0.35181832810243,-14.6832783818245
2010-03-14,3.14166662593683,0.383610010147095,-15.5505059957504,3.5,0.352794782569011,-14.3835764129957
2010-03-15,3.45833331843217,0.383610010147095,-15.4077007174492,3.5,0.351863749325275,-14.2328963081042
2010-03-16,3.78958332041899,0.383610010147095,-15.290074189504,3.60624997814496,0.350932715460658,-14.2163379192352
2010-03-17,4,0.383610010147095,-15.1767286062241,3.78124997019768,0.349433949838082,-14.2068905830383
2010-03-18,4.27708330750465,0.383610010147095,-15.1119055151939,3.91875002284845,0.345505415772398,-14.2033478617668
2010-03-19,4.76875002185504,0.383564592649539,-15.0516236027082,4.04166662693024,0.341372502967715,-14.19272818168
2010-03-20,5.04583328962326,0.384155005216599,-14.9479025204976,4.25208325187365,0.340350618585944,-14.0981479287148
2010-03-21,5.06874993443489,0.38465458403031,-14.8081001242002,4.40000009536743,0.340918337305387,-13.9619017442067
2010-03-22,5.08333325386047,0.384745416541894,-14.772556523482,4.49375000596046,0.341168131679296,-13.8597236474355
2010-03-23,5.23124992847443,0.384745416541894,-14.7372239033381,4.59791657328606,0.341304380446672,-13.8237199187279
2010-03-24,5.32500009735425,0.385086038460334,-14.7221281727155,4.66041651368141,0.340464162329833,-13.8439309597015
2010-03-25,5.61458322405815,0.385699157913526,-14.6296761830648,4.79791683952014,0.339351451645295,-13.848438501358
2010-03-26,5.93541671832403,0.385812699173888,-14.5344855984052,4.91875007748604,0.337194160868724,-13.8237118721008
2010-03-27,6.09999990463257,0.38578999042511,-14.4854240218798,5.13958334922791,0.336853530878822,-13.8001806735992
2010-03-28,6.03958329558372,0.386062495410442,-14.4488443334897,5.30000019073486,0.336989783371488,-13.7722707986832
2010-03-29,5.93333339691162,0.386811884120107,-14.3882699608803,5.30000019073486,0.337103328978022,-13.7745003700256
2010-03-30,5.90000009536743,0.38688001036644,-14.3749868869781,5.30000019073486,0.333447285617391,-13.7845334410667
2010-03-31,5.94375005364418,0.386902718494336,-14.3377511103948,5.30000019073486,0.331403547277053,-13.7945745587349
2010-04-01,5.6583333214124,0.387129799773296,-14.2887589136759,5.30000019073486,0.331653336683909,-13.7611229419708
2010-04-02,5.21666666865349,0.387674794842799,-14.2946976621946,5.30000019073486,0.331971250474453,-13.7544342279434
2010-04-03,5.04374995827675,0.387970000505447,-14.2530573606491,5.30000019073486,0.331948542346557,-13.7655820846558
2010-04-04,5.19999980926514,0.387992708633343,-14.1459576686223,5.30000019073486,0.332357288648685,-13.7655980587006
2010-04-05,5.31458350022634,0.388174373656511,-14.0480866829554,5.30000019073486,0.332402704904477,-13.7444331049919
2010-04-06,5.6020832657814,0.387992708633343,-13.9985346794128,5.30000019073486,0.332379996776581,-13.734471877416
2010-04-07,5.97708335518837,0.387992708633343,-13.9504940509796,5.30000019073486,0.333447284375628,-13.6991099516551
2010-04-08,6.18958319226901,0.388038124889135,-13.8778514862061,5.32708349823952,0.335036877542734,-13.6518032153447
2010-04-09,6.41041675209999,0.388106249272823,-13.8282677531242,5.4479167163372,0.337080618366599,-13.617887934049
2010-04-10,6.68333319822947,0.388038124889135,-13.7867951989174,5.54166662693024,0.338919997215271,-13.5830700000127
2010-04-11,6.89791676402092,0.387992708633343,-13.7400618195534,5.69999980926514,0.339692073563735,-13.5657154917717
2010-04-12,7.07291659712791,0.387992708633343,-13.7622776627541,5.81041678786278,0.339737489819527,-13.5667677323023
2010-04-13,7.05624994635582,0.387970000505447,-13.7700412273407,5.90833342075348,0.339306035389503,-13.5472863912582
2010-04-14,7.03333330154419,0.387970000505447,-13.754506111145,6.06249994039536,0.338806456575791,-13.5310930411021
2010-04-15,7.01458331942558,0.387970000505447,-13.7223608295123,6.09999990463257,0.337852714583278,-13.5332516233126
2010-04-16,7.01874998211861,0.387992708633343,-13.684769252936,6.09999990463257,0.336967075864474,-13.5106444358826
2010-04-17,7.10208323597908,0.387901876121759,-13.6891646583875,6.13124987483025,0.3349233319362,-13.504176457723
2010-04-18,7.19999980926514,0.387924584249655,-13.7101143598557,6.19999980926514,0.332584369927645,-13.5170815785726
2010-04-19,7.15624985098839,0.387992708633343,-13.7024144530296,6.26458338896434,0.331653336683909,-13.5138707558314
2010-04-20,7.10833323001862,0.387970000505447,-13.6902794043223,6.30000019073486,0.330608744174242,-13.5181570053101
2010-04-21,6.86666674415271,0.387970000505447,-13.6595505078634,6.30000019073486,0.330245404193799,-13.5149616003036
2010-04-22,6.63749986886978,0.388038124889135,-13.6759624481201,6.28750014305115,0.329337077836196,-13.5526865919431
2010-04-23,6.60833323001862,0.388015416761239,-13.6748713453611,6.19999980926514,0.328201671441396,-13.5645935734113
2010-04-24,6.85208340485891,0.387970000505447,-13.6354146202405,6.19999980926514,0.327724792684118,-13.5819554527601
2010-04-25,7.30416669448217,0.387970000505447,-13.5863978266716,6.21249985694885,0.326929986476898,-13.565708120664
2010-04-26,7.70416664083799,0.387992708633343,-13.5042458971341,6.36250013113022,0.32686186209321,-13.5386751294136
2010-04-27,7.98958339293798,0.388197081784407,-13.4860020081202,6.53958329558372,0.326929986476898,-13.4934530258179
2010-04-28,8.24791665871938,0.387992708633343,-13.502095023791,6.68124990661939,0.32618061825633,-13.4560365279516
2010-04-29,8.57083342472712,0.387992708633343,-13.5213832855225,6.91666674613953,0.325839996337891,-13.4730970064799
2010-04-30,8.75,0.387970000505447,-13.491455813249,7.1062498986721,0.325226876884699,-13.4550377726555
2010-05-01,8.75833336512248,0.387970000505447,-13.2665589650472,7.31250011920929,0.325136044373115,-13.3827686905861
2010-05-02,8.62708338101705,0.388356038679679,-13.2748064994812,7.4479167163372,0.325067919989427,-13.3385415077209
2010-05-03,8.35416656732559,0.388810201237599,-13.2790012359619,7.5,0.325045211861531,-13.2686263918877
2010-05-04,8.10625004768372,0.389059990644455,-13.2977132002513,7.48125001788139,0.324863546838363,-13.2178413470586
2010-05-05,8.09166695674261,0.389059990644455,-13.3270018895467,7.40000009536743,0.323637283717593,-13.2096156080564
2010-05-06,8.3020832935969,0.389854796851675,-13.329136967659,7.40000009536743,0.321389169742664,-13.2436745564143
2010-05-07,8.39999961853027,0.390036466841896,-13.3092076381048,7.43125006556511,0.320072072247664,-13.2457346916199
2010-05-08,8.34999990463257,0.390104593088229,-13.3102676471074,7.5,0.31941353653868,-13.2364344398181
2010-05-09,8.25416668256124,0.390150010585785,-13.351171374321,7.5,0.318732292701801,-13.2478392918905
2010-05-10,8.29791684945424,0.390150010585785,-13.4586375355721,7.5,0.318210005760193,-13.2914733886719
2010-05-11,8.2395832935969,0.390127301837007,-14.1889710227648,7.53333330154419,0.317823957030972,-13.3071252703667
2010-05-12,8.12083339691162,0.390172718713681,-14.6359497904778,7.50624999403954,0.317278947060307,-13.3144474426905
2010-05-13,7.96875002980232,0.390127301837007,-14.8436276515325,7.5,0.317006445179383,-13.4200703899066
2010-05-14,7.91875007748604,0.390263551225265,-15.3909745017687,7.46041670441628,0.316075411935647,-13.5396964550018
2010-05-15,8.07083360354106,0.390218134969473,-15.7849491039912,7.40000009536743,0.316029995679855,-13.5332516233126
2010-05-16,8.20416659116745,0.390354383736849,-16.3952911694845,7.44375005364418,0.315961871296167,-13.5418550372124
2010-05-17,8.38541642824809,0.390536048760017,-17.0982277393341,7.51666665077209,0.316052703807751,-13.4870698650678
2010-05-18,8.56041689713796,0.390672297527393,-17.988939722379,7.61458322405815,0.316143536319335,-13.4145329793294
2010-05-19,8.72499996423721,0.390808546294769,-19.1505192518234,7.73124992847443,0.316257076958815,-13.3838439385096
2010-05-20,9.08541671435038,0.390626881271601,-20.7966605424881,7.84375014901161,0.316416033854087,-13.3093127012253
2010-05-21,9.54791669050852,0.390308967481057,-22.9983471234639,8.07291676600774,0.316461450109879,-13.2489064733187
2010-05-22,10.0437500675519,0.390150010585785,-25.8206924994787,8.31874986489614,0.316188952575127,-13.25824401776
2010-05-23,10.5062500437101,0.389877505600452,-29.8943709135056,8.58958357572556,0.315802914400895,-13.3387155930201
2010-05-24,10.8979165156682,0.388991866260767,-34.6516466935476,8.92499993244807,0.315235211203496,-13.5343656738599
2010-05-25,11.0020833412806,0.388128957400719,-38.8341572284698,9.21666677792867,0.315008129924536,-13.5602686802546
2010-05-26,10.75,0.387493129819632,-41.5777103106181,9.41666638851166,0.314940005540848,-13.7002883354823
2010-05-27,10.416666607062,0.386766466622551,-42.3994158109029,9.5,0.314054364338517,-13.8948401610057
2010-05-28,10.2520833412806,0.386130621656775,-43.9056526819865,9.5,0.313827277471622,-13.929956873258
2010-05-29,10.1562500596046,0.385653741657734,-46.3632202943166,9.46874988079071,0.313123325506846,-13.9368327061335
2010-05-30,10.1000003814697,0.384927081565062,-47.286372423172,9.39999961853027,0.312737287332614,-14.0180894533793
2010-05-31,10.060416897138,0.384563751518726,-49.9437964757284,9.39999961853027,0.31275999546051,-13.9630573193232
2010-06-01,10.1791665951411,0.383632717654109,-52.5803610483805,9.39999961853027,0.31264645482103,-14.0434973239899
2010-06-02,10.3104167381922,0.382747077693542,-54.2183951536814,9.46666653951009,0.312623746693134,-14.0828481117884
2010-06-03,10.5520834922791,0.382133952031533,-58.4405426979065,9.52916677792867,0.31253291418155,-14.1271985769272
2010-06-04,10.8124999602636,0.380953129380941,-62.6402231852214,9.63958348830541,0.312078751623631,-14.248359421889
2010-06-05,11.1333334247271,0.379908543700973,-67.480510075887,9.7604167064031,0.311670005321503,-14.3774702548981
2010-06-06,11.4937500357628,0.378841243684292,-72.5503877003988,9.92708309491475,0.31019395776093,-14.6038420001666
2010-06-07,11.6020837028821,0.378159999847412,-73.6295064290365,10.0812502503395,0.308354587604602,-14.9666767319043
2010-06-08,11.6541667381922,0.378159999847412,-72.5161186854045,10.2249999046326,0.307491655151049,-15.3848814169566
2010-06-09,11.6645833452543,0.378159999847412,-70.2360053062439,10.3000001907349,0.307264568905036,-15.5738394459089
2010-06-10,11.5395834843318,0.37811458359162,-68.6294148763021,10.3937496542931,0.307151028265556,-15.6280654271444
2010-06-11,11.4145830074946,0.378091875463724,-69.6553738911947,10.3999996185303,0.306242703149716,-15.944067577521
2010-06-12,11.3999996185303,0.377796669801076,-71.5964239438375,10.3999996185303,0.306083746254444,-16.1527800957362
2010-06-13,11.4854166110357,0.377524172266324,-71.7531943321228,10.3999996185303,0.30542521054546,-17.0825566450755
2010-06-14,11.5708336035411,0.377683129161596,-70.9862635930379,10.4270830551783,0.305130004882813,-17.6894314686457
2010-06-15,11.5187500715256,0.378046459207932,-70.3973415692647,10.5,0.305130004882813,-18.0172293186188
2010-06-16,11.5,0.378182707975308,-69.1590364774068,10.5,0.305084588627021,-18.2953710158666
2010-06-17,11.686956550764,0.378231086160826,-67.5639620241912,10.5,0.304821964191354,-18.5650969380918
2010-06-18,12.0291667580605,0.378182707975308,-66.4838064511617,10.5791669686635,0.303994597246249,-18.9116654793421
2010-06-19,12.1854165593783,0.378273540486892,-65.8453809420268,10.6791665951411,0.303381461029251,-19.2936795949936
2010-06-20,11.9916666348775,0.378159999847412,-65.9816660881042,10.7812501192093,0.302949994802475,-19.703991095225
2010-06-21,11.9708332220713,0.378137291719516,-67.0168650945028,10.8000001907349,0.302632081011931,-20.1924800078074
2010-06-22,12.1520833174388,0.378137291719516,-69.0733445485433,10.8000001907349,0.300338548297683,-20.7305611371994
2010-06-23,12.3708330988884,0.377592296650012,-71.1604636510213,10.8749997615814,0.299521037687858,-21.2740334272385
2010-06-24,12.5708335638046,0.377070009708405,-73.2252073287964,10.9583331743876,0.29854458818833,-21.8140182495117
2010-06-25,12.7083331743876,0.376888339718183,-73.4323898951213,11.060416897138,0.297636263072491,-22.622829635938
2010-06-26,12.8583331902822,0.37602540726463,-74.3539527257283,11.1770832737287,0.29725021806856,-23.3662292957306
2010-06-27,13.0395834843318,0.375752908488115,-77.4004996617635,11.25,0.296092080573241,-24.1706376870473
2010-06-28,13.2750000953674,0.374594793965419,-84.4611576398214,11.3687497973442,0.295070214817921,-25.0443836450577
2010-06-29,13.406249721845,0.374140631407499,-86.0119736989339,11.4895832935969,0.294320846597354,-25.7355114618937
2010-06-30,13.5791669686635,0.375094372779131,-73.8557713826497,11.6125003099442,0.294161887839437,-25.6581827402115
2010-07-01,13.7770833571752,0.378001041089495,-54.2995772361755,11.7354166110357,0.294207305336992,-23.9893258015315
2010-07-02,13.983333269755,0.385608334094286,-21.45798544089,11.860416551431,0.295547085503737,-19.4633461634318
2010-07-03,14.1000003814697,0.389695836231112,-13.4309472839038,12.0104167064031,0.314803749943773,-16.6254505713781
2010-07-04,14.087500333786,0.390150010585785,-13.3553435206413,12.1104169885317,0.323114999259512,-15.6844007968903
2010-07-05,13.9916666348775,0.390150010585785,-13.3574560085932,12.1999998092651,0.317097285141548,-15.14268998305
2010-07-06,13.8645831545194,0.390172718713681,-13.3218297362328,12.1999998092651,0.315780206272999,-14.538641055425
2010-07-07,13.8000001907349,0.391285416980584,-13.2323289910952,12.1999998092651,0.31432686932385,-14.4125277400017
2010-07-08,13.8000001907349,0.3923299908638,-13.1921635667483,12.206249833107,0.313849985599518,-14.3437761267026
2010-07-09,13.8000001907349,0.39164874702692,-13.1695685784022,12.3000001907349,0.313849985599518,-14.2532974084218
2010-07-10,13.9145830074946,0.39130812510848,-13.1125171383222,12.3000001907349,0.313622904320558,-14.1411411364873
2010-07-11,14.0708336035411,0.391489790131648,-13.0620156526566,12.3374999761581,0.312033335367839,-14.1387962897619
2010-07-12,14.1083336671193,0.391716871410608,-13.0046173930168,12.4062496423721,0.311670005321503,-14.1049977938334
2010-07-13,14.0541668732961,0.39164874702692,-12.991662800312,12.5,0.311465626582503,-14.1551512479782
2010-07-14,14,0.394441874076923,-12.8176807959874,12.5,0.308490825196107,-14.0507420897484
2010-07-15,14.0270834366481,0.395917913566033,-12.534254014492,12.5,0.308104791368047,-13.3601212104162
2010-07-16,14.1000003814697,0.396712719152371,-12.23851364851,12.5479168494542,0.308808751404285,-12.7999729911486
2010-07-17,14.0416668256124,0.396962508559227,-12.2120222449303,12.6000003814697,0.318391662711899,-11.9890289505323
2010-07-18,13.9041663010915,0.396871676047643,-12.2137879133224,12.6000003814697,0.321139376610518,-11.9291754166285
2010-07-19,13.9312497377396,0.397166881710291,-12.1638916134834,12.6000003814697,0.319754165286819,-11.8857348163923
2010-07-20,14.1333334247271,0.397802709291379,-12.0882445772489,12.6000003814697,0.322002290437619,-11.7729154427846
2010-07-21,14.3541665077209,0.397848125547171,-11.9907443920771,12.6833332379659,0.319935830309987,-11.7056246598562
2010-07-22,14.4687498807907,0.397870833675067,-11.9890289505323,12.7729167540868,0.319390832136075,-11.6400220394135
2010-07-23,14.3041665156682,0.397870833675067,-12.0654489596685,12.8583331902822,0.323137699315945,-11.6659550269445
2010-07-24,14.1000003814697,0.397530211756627,-12.1524124542872,12.8999996185303,0.323569155608614,-11.7467994292577
2010-07-25,14.1020837028821,0.396758135408163,-12.158501068751,12.8041668335597,0.321866043532888,-11.7532902956009
2010-07-26,14.1999998092651,0.396690011024475,-12.1480518579483,12.8000001907349,0.32032186165452,-11.7744468450546
2010-07-27,14.2770833770434,0.396690011024475,-12.1376088857651,12.8854163686434,0.3198676990966,-11.7932473023733
2010-07-28,14.3999996185303,0.396576467280587,-12.1454442342122,12.8999996185303,0.319390828410784,-11.8186622063319
2010-07-29,14.3999996185303,0.395645408580701,-12.1576277017593,12.9770832459132,0.319890407224496,-11.8302008310954
2010-07-30,14.3687497973442,0.395145828525225,-12.1803919275602,13,0.320026655991872,-11.8533136049906
2010-07-31,14.3291666905085,0.39455541719993,-12.2102375626564,13,0.319504369050264,-11.8865233063698
2010-08-01,14.3000001907349,0.394578125327826,-12.1970614790916,13,0.3192999958992,-11.8881964087486
2010-08-02,14.3000001907349,0.394850622862577,-12.1909353137016,13,0.3192999958992,-11.8450734217962
2010-08-03,14.3229167262713,0.395100412269433,-12.2032128771146,13.0062500238419,0.318823125213385,-11.821972489357
2010-08-04,14.3687497973442,0.394896039118369,-12.2464686234792,13.1000003814697,0.318164588262637,-11.8219606479009
2010-08-05,14.2770834366481,0.394827914734681,-12.2606701850891,13.1000003814697,0.318164588262637,-11.8211478789647
2010-08-06,14.1666666666667,0.394827914734681,-12.2722456256549,13.1000003814697,0.318164588262637,-11.8211419582367
2010-08-07,14.147916773955,0.395077704141537,-12.2526897788048,13.0333334604899,0.318005627021194,-11.8088142474492
2010-08-08,14.266666730245,0.395509158571561,-12.1997257471085,13,0.318346254527569,-11.7850662867228
2010-08-09,14.3000001907349,0.395213952908913,-12.2226225932439,13.0583335558573,0.318255422015985,-11.7948846817017
2010-08-10,14.2625000476837,0.39466895783941,-12.2500126361847,13.1000003814697,0.318028335769971,-11.8096506992976
2010-08-11,14.1395834883054,0.39455541719993,-12.2305205663045,13.1000003814697,0.318096462016304,-11.8591332435608
2010-08-12,14.0354168017705,0.394510000944138,-12.1988335251808,13.060416897138,0.318210005760193,-11.8359967867533
2010-08-13,13.9541664918264,0.394623541583618,-12.1136400302251,13,0.319004790236553,-11.8203469514847
2010-08-14,13.8354166547457,0.395077704141537,-11.6565454999606,13,0.318028328940272,-11.6520926356316
2010-08-15,13.8000001907349,0.395123120397329,-11.3150719602903,12.9062496423721,0.318051044518749,-11.5932152072589
2010-08-16,13.8937496542931,0.394623541583618,-11.1887686252594,12.8999996185303,0.318210005760193,-11.5228776931763
2010-08-17,13.9104163249334,0.394646249711514,-11.1258507966995,12.8999996185303,0.31734707330664,-11.4971211751302
2010-08-18,14,0.394600833455722,-11.0376143455505,12.8999996185303,0.317256238311529,-11.5273969372114
2010-08-19,13.9583331743876,0.394532709072034,-10.9153638482094,12.8999996185303,0.31784666577975,-11.5305163860321
2010-08-20,13.9041663010915,0.394532709072034,-10.8134756882985,12.8999996185303,0.318164588262637,-11.5289538502693
2010-08-21,14.0708336035411,0.394714374095201,-10.6982726852099,12.8999996185303,0.318232713888089,-11.5281753937403
2010-08-22,14.1000003814697,0.394532709072034,-10.6334014137586,12.9791665871938,0.318278130143881,-11.5165041486422
2010-08-23,14.0625002384186,0.394578125327826,-10.6199132998784,13,0.317574160794417,-11.5563348531723
2010-08-24,13.9291665156682,0.396735422313213,-10.5404824018478,13,0.316234368830919,-11.6035332878431
2010-08-25,13.7541666825612,0.398461245000362,-10.4998101592064,12.9937499761581,0.322342914218704,-11.4503879348437
2010-08-26,13.6229169170062,0.398892700051268,-10.4453522364298,12.8999996185303,0.325249585012595,-11.3868755499522
2010-08-27,13.5395834843318,0.399823758751154,-10.3730054100355,12.852083226045,0.324341248720884,-11.3634733557701
2010-08-28,13.3874996900558,0.400005427499612,-10.3041023810705,12.8000001907349,0.323682695006331,-11.3311258157094
2010-08-29,13.3000001907349,0.399755632504821,-10.2804435094198,12.7104165156682,0.323319364339113,-11.3243841727575
2010-08-30,13.145833392938,0.399233331282934,-10.2763489882151,12.6708333094915,0.323569153745969,-11.3140343825022
2010-08-31,12.9312499165535,0.398960826297601,-10.2342445254326,12.5791669686635,0.324250413725774,-11.2841616471608
2010-09-01,12.7583333651225,0.398869991923372,-10.2040851712227,12.4729165633519,0.323841656247775,-11.2759939432144
2010-09-02,12.7041664918264,0.398847283174594,-10.192572414875,12.3791664044062,0.323659986257553,-11.2737791140874
2010-09-03,12.8000001907349,0.398847283174594,-10.1839228669802,12.3000001907349,0.323478321234385,-11.2767393986384
2010-09-04,12.8916663328807,0.398847283174594,-10.1661923329035,12.3000001907349,0.322638120502234,-11.2886182268461
2010-09-05,12.9104163249334,0.398847283174594,-10.153615574042,12.3000001907349,0.322569996118546,-11.296029706796
2010-09-06,13.0020833412806,0.398801866918802,-10.1326025327047,12.3000001907349,0.322161249816418,-11.3266422351201
2010-09-07,13.1000003814697,0.398801866918802,-10.1252348820368,12.3000001907349,0.32145729723076,-11.4273113807042
2010-09-08,13.1895832022031,0.399210622534156,-10.0970995426178,12.3208334048589,0.321366462235649,-11.4508884747823
2010-09-09,13.3000001907349,0.399346875026822,-10.0630613168081,12.3999996185303,0.321298335989316,-11.4401737451553
2010-09-10,13.3000001907349,0.399437710021933,-10.0725255608559,12.3999996185303,0.320753326018651,-11.430220802625
2010-09-11,13.4187498092651,0.400527712578575,-10.034340997537,12.4770832459132,0.319390827789903,-11.4082876642545
2010-09-12,13.5,0.401594996452332,-10.0008591016134,12.5,0.322728954255581,-11.2340009609858
2010-09-13,13.4666665395101,0.40109541763862,-10.0063582658768,12.5833336512248,0.32942791034778,-11.1944566965103
2010-09-14,13.4812499284744,0.401072709510724,-9.99541326363881,12.6000003814697,0.325930831953883,-11.1944514513016
2010-09-15,13.4354165792465,0.40109541763862,-9.98670319716136,12.6000003814697,0.323864364996552,-11.1937220096588
2010-09-16,13.2000000874201,0.400663963208596,-9.98073037465413,12.6000003814697,0.323092283060153,-11.2032047510147
2010-09-17,12.964583337307,0.4000735518833,-10.0019417206446,12.5708336035411,0.322569996118546,-11.2017458677292
2010-09-18,12.6750001311302,0.399982719371716,-10.0079513788223,12.4729165633519,0.322569996118546,-11.1966397762299
2010-09-19,12.5,0.39996001124382,-10.0041397015254,12.3541665474574,0.322569996118546,-11.2024753093719
2010-09-20,12.5208334128062,0.400096260011196,-9.99595252672831,12.25,0.322569996118546,-11.2376269499461
2010-09-21,12.6145836313566,0.400028135627508,-9.99976829687754,12.1999998092651,0.322569996118546,-11.2258813381195
2010-09-22,12.7583333651225,0.400482298185428,-9.98670319716136,12.1999998092651,0.322569996118546,-11.2185443242391
2010-09-23,12.872916440169,0.400959168871244,-10.0393512050311,12.1999998092651,0.32243374735117,-11.299858212471
2010-09-24,12.8812497258186,0.402026450882355,-10.0965438286463,12.2187498807907,0.324681867534916,-11.3394017616908
2010-09-25,12.5666666428248,0.402139991521835,-10.093167424202,12.2687500715256,0.335422910749912,-11.297520617644